Regional Weather Roundup
Issued by NWS

Home | Current Version | Previous Version | Graphics & Text | Print | Product List | Glossary On
Versions: 1 2 3 4 5 6 7 8 9 10 11 12 13 14 15 16 17 18 19 20 21 22 23 24 25 26 27 28 29 30 31 32 33 34 35 36 37 38 39 40 41 42 43 44 45 46 47 48 49 50
000
ASUS43 KTOP 272259
RWRKS

WEATHER ROUNDUP FOR KANSAS
NATIONAL WEATHER SERVICE GOODLAND KS
600 PM CDT THU APR 27 2017

NOTE:  "FAIR" INDICATES FEW OR NO CLOUDS BELOW 12,000 FEET WITH NO
SIGNIFICANT WEATHER AND/OR OBSTRUCTIONS TO VISIBILITY.

KSZ001>006-013>018-027>032-041>047-280000-
NORTHWEST KANSAS

CITY           SKY/WX    TMP DP  RH WIND       PRES   REMARKS
GOODLAND       PTSUNNY   57  40  52 E29G39    29.43S
HAYS           CLOUDY    54  46  74 E20G28    29.58F
HILL CITY      CLOUDY    51  45  79 E15       29.58F
RUSSELL        LGT RAIN  51  47  86 E14       29.59F
$$

KSZ061>065-074>080-084>089-280000-
SOUTHWEST KANSAS

CITY           SKY/WX    TMP DP  RH WIND       PRES   REMARKS
DODGE CITY     SUNNY     60  42  51 SE24G36   29.49F
ELKHART          N/A     69  37  30 W9          N/A
GARDEN CITY    MOSUNNY   60  41  49 SE23G36   29.44F
GREAT BEND     LGT RAIN  53  47  79 E14G22    29.59F
LIBERAL        PTSUNNY   67  44  43 SE21      29.39S
$$

KSZ066>073-081>083-090>101-280000-
SOUTHEAST KANSAS

CITY           SKY/WX    TMP DP  RH WIND       PRES   REMARKS
CHANUTE        CLOUDY    60  46  59 MISG      29.74R
COFFEYVILLE    CLOUDY    61  47  59 E7        29.71R
HUTCHINSON     CLOUDY    54  46  74 E14       29.62F
NEWTON         LGT RAIN  54  45  71 E13G20    29.63F
PARSONS        CLOUDY    60  47  61 S6        29.74R
WICHITA INTL   CLOUDY    57  48  72 E18       29.63F
WICHITA JABRA  CLOUDY    54  46  74 E12       29.62F
WICHITA MCCONL CLOUDY    56  45  67 SE16      29.63R
WINFIELD       CLOUDY    62  43  49 SE15G24   29.65F
$$

KSZ007>012-019>026-033>040-048>060-102>105-280000-
NORTHEAST KANSAS

CITY           SKY/WX    TMP DP  RH WIND       PRES   REMARKS
CONCORDIA      LGT RAIN  50  46  86 E6        29.68S
EMPORIA        LGT RAIN  54  49  83 E7        29.70F
LAWRENCE       MOSUNNY   60  39  45 CALM      29.73S
MANHATTAN      CLOUDY    59  38  45 SE7       29.70S
OLATHE IND     CLOUDY    59  41  51 SW5       29.73S
OLATHE EXE     CLOUDY    58  41  53 S3        29.73S
SALINA         CLOUDY    58  43  57 E10       29.65F
TOPEKA BILLARD CLOUDY    59  39  47 CALM      29.72S
TOPEKA FORBES  CLOUDY    60  38  43 CALM      29.72R
$$




USA.gov is the U.S. government's official web portal to all federal, state and local government web resources and services.